THORAD AGENA D DEB, 4651

Orbit data source: Space-Track

THORAD AGENA D DEB, 4651 is space debris in SSO originally from a launch on Wed, 08 Apr 1970 UTC launched from the Air Force Western Test Range (AFWTR). Debris objects in space refer to the collection of defunct objects orbiting the Earth. Examples of debris include non-operational satellites, rocket bodies, and fragments generated from explosions, collisions, or faulty payload assembly.

Loading next visibility...
Identifier
4651, 1970-025AK
Orbit
SSO
Country
Flag of USUS
Related business
Manufacturer
Unknown
Mission
Spacecraft
Bus & Motor
Unknown
Mass
Unknown
Launch date (UTC)
1970-04-08 (56 years ago)
Launch vehicle
Unknown
Launch site
Air Force Western Test Range (AFWTR)
Object type
Payload
Rocket body
Debris
Shape & HBR
Unknown shape, 0.2 m
Radar Cross Section
Small (<0.1 m²)

Expand to show TLE details & history
Last TLE update: 9 hours ago

TLE from 9 hours ago
0 THORAD AGENA D DEB
1  4651U 70025AK  26126.32803051  .00001053  00000-0  70843-3 0  9993
2  4651 100.1468  75.2380 0041190 196.3765 163.6069 14.02937548829851
Epoch: 2026-05-06T07:52Z
TLE epoch observation values (Epoch: 2026-05-06T07:52:21.836Z)
Latitude
0.00002°
Longitude
92.95691°
Altitude
915.193 km
Speed
7.38 km/s
True Right ascension
05h 00m 57s
True Declination
0° 00' 00"
Sunlit
Object was in daylight at epoch
Visualization orbit readout
Latitude
Unknown
Longitude
Unknown
Altitude
Unknown
Speed
Unknown
Apparent Right ascension
Unknown
Apparent Declination
Unknown
Sunlit
N/A
Visualization observer readout
Local Sidereal Time
00:39:14
Azimuth
Unknown
Elevation
Unknown
Doppler factor
Unknown
Orbital elements
Apogee altitude
910.796 km
Perigee altitude
850.996 km
Semi-major axis
7,259.033 km
Eccentricity
0.00412
Inclination
100.1468°
RAAN
75.238°
Arg. of periapsis
196.3765°
True anomaly
163.73946°
Mean anomaly
163.6069°
Eccentric anomaly
163.67324°
Mean motion
3.50934 °/min
Orbital period
102.58 mins
BSTAR
0.00070843
Loading maneuver chart data...
Computing Atmospheric mass density...

Documentation

Showing up to 5 results
|